Find Starlink 2622

NORAD ID: 48360 Int'l Des: 2021-038 Owner: SPXS Country: US Constellation: starlink operational
LEOCIRCULAR

当前视图

正在加载3D地球...

About Starlink 2622

Starlink 2622 (NORAD 48360) is a starlink constellation satellite (v1.0) launched May 4, 2021 by SPXS of US. It operates in LEO, CIRCULAR orbit with a mass of 260.00 kg.

即将过境

Passes for default location (London). Set your location on the main map for personalized predictions.

高度历史

Loading altitude history...

两行轨道根数

1 48360U 21038H 26264.14602382 .00000046 00000-0 13255-4 0 9991
2 48360 53.1594 168.5354 0001229 87.7437 272.3706 15.31703465297024
Epoch: Sep 21, 2026 • Age: 17 hours

当前状态

高度 486.8 km
远地点 / 近地点 N/A
速度 7.62 km/s
星下点 -45.19°S, 89.92°E
发射日期 May 4, 2021
运行时间 5.3 years
类型 internet

技术详情

分类 Payload
质量 260.00 kg
干质量 248.00 kg
长度 0.20 m
跨度 9.00 m
形状 ? Box + pan
制造商 SPXS
平台类型 Starlink
阶段状态 In Orbit
所有者/国家 SPXS/US

Most Searched